Tracking 30995 objects as of 5-Jul-2025
HD Live streaming from Space Station
objects crossing your sky now

OBJECT F

Track OBJECT F now!
10-day predictions


NORAD ID: 44315
Int'l Code: 2019-032F
Perigee: 443.9 km
Apogee: 465.2 km
Inclination: 45.0 °
Period: 93.5 minutes
Semi major axis: 6825 km
RCS: Unknown
Launch date: June 5, 2019
Source: People's Republic of China (PRC)
Launch site: Yellow Sea Launch Area, China (YSLA)
Your satellite tracking list
Your tracking list is empty




NASA's NSSDC Master Catalog

Two Line Element Set (TLE):
1 44315U 19032F   25186.58037334  .00023143  00000-0  58054-3 0  9995
2 44315  44.9865  39.1631 0015654 185.3429 174.7294 15.39563533335458
Source of the keplerian elements: AFSPC